Volver al catálogo

STARLINK-30511

ActivoComunicacionesVLEO
NORAD 57978·PAYLOAD·🇺🇸 United States

Lanzado Sep 30, 2023 desde Cape Canaveral Space Force Station

Loading…

Próximos Pases (próximas 24 horas)

TLE

ActualizadoSource: CelesTrak SupGP

Época: Sep 14, 2026, 22:17 UTC

1 57978C 23151Q   26257.92895833 -.00051088  00000+0 -18501-2 0  2574
2 57978  43.0030   2.0371 0001509 272.4584 109.2778 15.27608937    11

Sigue STARLINK-30511 en tiempo real con AllMySat

Download on the App Store